Погода в Чикшине

Россия / Республика Коми     64°53′34″N   56°25′48″E
темп.,
°C
ветер,
м/с
пор.,
м/с
влажн.,
%
обл.,
%
осадки,
мм/ч
давл.,
гПа
погр.,
м
27 июня, пн
пн2700:00+2ссз389466 0.0 1014254
03:00+3с4877100 0.0 1013882
06:00+3с4884100 0.1 1013925
09:00+5с5864100 0.1 10131257
12:00+5с4881100 0.4 10131058
15:00+9с5959100 0.6 10131673
18:00+6с5974100 0.3 10141103
21:00+4ссз5117496 0.3 10141068
28 июня, вт
вт2800:00+3ссз51083100 0.0 1014819
03:00+3с51382100 0.0 1014799
06:00+3с61487100 0.1 1015804
09:00+10ссв7115640 0.1 10151185
12:00+13ссв7104787 0.0 10161472
15:00+16с7114110 0.0 10171597
18:00+14с611482 0.0 10171318
21:00+9с512525 0.0 1019744
29 июня, ср
ср2900:00+7с5136169 0.0 1019574
03:00+5ссз41159100 0.0 1018452
06:00+7ссз485797 0.0 1017624
09:00+11ссз5845100 0.0 10151315
12:00+14ссз6940100 0.0 10132264
15:00+12с695190 0.0 10131819
18:00+10ссв695292 0.1 10131470
21:00+7ссв510677 0.1 1015887
30 июня, чт
чт3000:00+5ссв510726 0.0 1016717
03:00+5ссв5107679 0.0 1017895
06:00+7ссв696010 0.0 1017954
09:00+11ссв584811 0.0 10171195
12:00+14ссв68425 0.0 10171447
15:00+16ссв693427 0.0 10171592
18:00+15ссв494164 0.0 10161402
21:00+10с386185 0.0 1017244
1 июля, пт
пт100:00+7с310735 0.0 1017243
03:00+8с287385 0.0 1016278
06:00+12с35505 0.0 1016612
09:00+17с35318 0.0 10141035
12:00+21ссз34255 0.0 10121481
15:00+23ссз35255 0.0 10111858
18:00+21с243733 0.0 1010122
21:00+14сз246412 0.0 101082